Regional Weather Roundup
Issued by NWS

Home | Current Version | Previous Version | Text Only | Print | Product List | Glossary On
Versions: 1 2 3 4 5 6 7 8 9 10 11 12 13 14 15 16 17 18 19 20 21 22 23 24 25 26 27
000
ASPQ40 PGUM 010312
RWRPQ
WEATHER ROUNDUP FOR THE MARIANAS AND MICRONESIA
NATIONAL WEATHER SERVICE TIYAN GU
100 PM CHST MON MAY 01 2017

GUZ001>004-010400-
MARIANA ISLANDS-

CITY           SKY/WX    TMP DP  RH WIND       PRES   REMARKS
GUAM AIRPORT   MOSUNNY   88  73  62 E14       29.94F HX  96
ANDERSEN AFB   MOSUNNY   84  75  74 E13       29.95F HX  92
ROTA AIRPORT   MOSUNNY   84  75  74 E14       29.94F HX  92
TINIAN AP      MOSUNNY   86  73  66 E15       29.93F HX  93
SAIPAN AP      MOSUNNY   88  75  66 E13       29.93F HX  97

$$

PMZ161-010400-
REPUBLIC OF PALAU-

CITY           SKY/WX    TMP DP  RH WIND       PRES   REMARKS
KOROR AP       PTSUNNY   86  75  70 E8        29.86F HX  95
KOROR WSO      CLOUDY    88  75  66 E3        29.88F HX  97

$$

PMZ171>174-010400-
FEDERATED STATES OF MICRONESIA-

CITY           SKY/WX    TMP DP  RH WIND       PRES   REMARKS
YAP AIRPORT    MOSUNNY   88  77  70 VRB7      29.90F HX 100
CHUUK AP       CLOUDY    81  79  94 NE12      29.85F
POHNPEI AP     CLOUDY    88  77  70 NE12      29.82F HX 100
POHNPEI WSO    CLOUDY    86  75  70 NE6       29.85F HX  95
KOSRAE AP      MOSUNNY   88  75  66 NE16      29.78F HX  97

$$

PMZ181-010400-
REPUBLIC OF THE MARSHALL ISLANDS-

CITY           SKY/WX    TMP DP  RH WIND       PRES   REMARKS
KWAJALEIN AP   LGT RAIN  82  73  74 E15       29.80F
MAJURO AP      NOT AVBL
MAJURO WSO     CLOUDY    84  75  74 E16       29.76F HX  92

$$





USA.gov is the U.S. government's official web portal to all federal, state and local government web resources and services.